| time (UTC) | temp F | wind direction | speed MPH | gust MPH | rain 1hr in | rain 24hr in | rain mn in | humidity % | barometer mb |
| 20260905213520 | 66 | 162 | 0.0 | 3.0 | 0.00 | 0.00 | 0.00 | 52 | 1017.6 |
| 20260905212519 | 65 | 306 | 1.0 | 4.0 | 0.00 | 0.00 | 0.00 | 52 | 1017.7 |
| 20260905211518 | 64 | 57 | 1.0 | 3.0 | 0.00 | 0.00 | 0.00 | 53 | 1017.8 |
| 20260905210518 | 64 | 341 | 2.0 | 5.0 | 0.00 | 0.00 | 0.00 | 54 | 1017.9 |
| 20260905205518 | 64 | 27 | 2.0 | 4.0 | 0.00 | 0.00 | 0.00 | 55 | 1018.0 |
| 20260905204520 | 64 | 44 | 2.0 | 6.0 | 0.00 | 0.00 | 0.00 | 56 | 1018.0 |
| 20260905203519 | 65 | 74 | 1.0 | 4.0 | 0.00 | 0.00 | 0.00 | 54 | 1018.1 |
| 20260905202520 | 64 | 6 | 1.0 | 4.0 | 0.00 | 0.00 | 0.00 | 56 | 1018.1 |
| 20260905201519 | 64 | 197 | 1.0 | 4.0 | 0.00 | 0.00 | 0.00 | 58 | 1018.3 |
| 20260905200519 | 63 | 224 | 1.0 | 3.0 | 0.00 | 0.00 | 0.00 | 57 | 1018.3 |
| 20260905195519 | 62 | 64 | 1.0 | 5.0 | 0.00 | 0.00 | 0.00 | 58 | 1018.5 |
| 20260905194516 | 60 | 10 | 2.0 | 5.0 | 0.00 | 0.00 | 0.00 | 59 | 1018.6 |
| 20260905193520 | 60 | 99 | 2.0 | 5.0 | 0.00 | 0.00 | 0.00 | 62 | 1018.6 |
| 20260905192520 | 60 | 306 | 2.0 | 4.0 | 0.00 | 0.00 | 0.00 | 62 | 1018.8 |
| 20260905191517 | 60 | 281 | 1.0 | 3.0 | 0.00 | 0.00 | 0.00 | 62 | 1018.9 |
| 20260905190517 | 59 | 269 | 2.0 | 5.0 | 0.00 | 0.00 | 0.00 | 64 | 1018.9 |
| 20260905185539 | 59 | 4 | 2.0 | 5.0 | 0.00 | 0.00 | 0.00 | 63 | 1019.0 |
| 20260905184520 | 58 | 27 | 2.0 | 6.0 | 0.00 | 0.00 | 0.00 | 65 | 1019.1 |
| 20260905183519 | 57 | 3 | 1.0 | 5.0 | 0.00 | 0.00 | 0.00 | 66 | 1019.3 |
| 20260905182518 | 56 | 12 | 3.0 | 6.0 | 0.00 | 0.00 | 0.00 | 67 | 1019.5 |
| 20260905181518 | 56 | 17 | 3.0 | 5.0 | 0.00 | 0.00 | 0.00 | 67 | 1019.6 |
| 20260905180540 | 56 | 310 | 2.0 | 5.0 | 0.00 | 0.00 | 0.00 | 68 | 1019.6 |
| 20260905175520 | 55 | 355 | 2.0 | 4.0 | 0.00 | 0.00 | 0.00 | 69 | 1019.7 |
| 20260905174519 | 54 | 0 | 3.0 | 5.0 | 0.00 | 0.00 | 0.00 | 69 | 1019.7 |
| 20260905173519 | 54 | 12 | 2.0 | 5.0 | 0.00 | 0.00 | 0.00 | 71 | 1019.6 |
| 20260905172522 | 53 | 357 | 3.0 | 6.0 | 0.00 | 0.00 | 0.00 | 72 | 1019.7 |
| 20260905171519 | 52 | 23 | 3.0 | 5.0 | 0.00 | 0.00 | 0.00 | 72 | 1019.7 |
| 20260905170524 | 52 | 1 | 3.0 | 6.0 | 0.00 | 0.00 | 0.00 | 74 | 1019.7 |
| 20260905165521 | 51 | 359 | 2.0 | 5.0 | 0.00 | 0.00 | 0.00 | 75 | 1019.8 |
| 20260905164519 | 50 | 7 | 1.0 | 3.0 | 0.00 | 0.00 | 0.00 | 76 | 1019.8 |
| 20260905163542 | 50 | 359 | 3.0 | 6.0 | 0.00 | 0.00 | 0.00 | 76 | 1019.8 |
| 20260905162523 | 49 | 9 | 3.0 | 5.0 | 0.00 | 0.00 | 0.00 | 77 | 1019.9 |
| 20260905161520 | 48 | 22 | 3.0 | 5.0 | 0.00 | 0.00 | 0.00 | 78 | 1019.9 |
| 20260905160523 | 48 | 31 | 3.0 | 5.0 | 0.00 | 0.00 | 0.00 | 78 | 1020.0 |
| 20260905155517 | 47 | 32 | 2.0 | 5.0 | 0.00 | 0.00 | 0.00 | 79 | 1019.9 |
| 20260905154523 | 47 | 27 | 2.0 | 3.0 | 0.00 | 0.00 | 0.00 | 79 | 1019.9 |
| 20260905153521 | 47 | 13 | 3.0 | 5.0 | 0.00 | 0.00 | 0.00 | 80 | 1019.9 |
| 20260905152541 | 46 | 20 | 3.0 | 5.0 | 0.00 | 0.00 | 0.00 | 80 | 1019.9 |
| 20260905151521 | 46 | 16 | 2.0 | 4.0 | 0.00 | 0.00 | 0.00 | 81 | 1019.8 |
| 20260905150542 | 46 | 8 | 2.0 | 5.0 | 0.00 | 0.00 | 0.00 | 81 | 1019.8 |
| 20260905145518 | 46 | 12 | 2.0 | 6.0 | 0.00 | 0.00 | 0.00 | 81 | 1019.7 |
| 20260905144521 | 46 | 2 | 2.0 | 3.0 | 0.00 | 0.00 | 0.00 | 81 | 1019.6 |
| 20260905143522 | 46 | 13 | 3.0 | 5.0 | 0.00 | 0.00 | 0.00 | 80 | 1019.6 |
| 20260905142521 | 45 | 360 | 3.0 | 5.0 | 0.00 | 0.00 | 0.00 | 81 | 1019.5 |
| 20260905141522 | 44 | 17 | 2.0 | 5.0 | 0.00 | 0.00 | 0.00 | 82 | 1019.5 |
| 20260905140523 | 44 | 14 | 2.0 | 4.0 | 0.00 | 0.00 | 0.00 | 83 | 1019.4 |
| 20260905135519 | 44 | 15 | 2.0 | 6.0 | 0.00 | 0.00 | 0.00 | 83 | 1019.4 |
| 20260905134517 | 45 | 14 | 3.0 | 5.0 | 0.00 | 0.00 | 0.00 | 82 | 1019.3 |
| 20260905133517 | 45 | 359 | 3.0 | 5.0 | 0.00 | 0.00 | 0.00 | 82 | 1019.3 |
| 20260905132519 | 45 | 11 | 2.0 | 5.0 | 0.00 | 0.00 | 0.00 | 81 | 1019.2 |
| 20260905131520 | 45 | 8 | 3.0 | 7.0 | 0.00 | 0.00 | 0.00 | 80 | 1019.2 |
| 20260905130520 | 45 | 5 | 3.0 | 8.0 | 0.00 | 0.00 | 0.00 | 80 | 1019.2 |
| 20260905125517 | 45 | 9 | 3.0 | 7.0 | 0.00 | 0.00 | 0.00 | 81 | 1019.1 |
| 20260905124519 | 45 | 12 | 3.0 | 6.0 | 0.00 | 0.00 | 0.00 | 81 | 1019.1 |
| 20260905123518 | 46 | 5 | 3.0 | 6.0 | 0.00 | 0.00 | 0.00 | 80 | 1019.0 |
| 20260905122520 | 46 | 355 | 3.0 | 7.0 | 0.00 | 0.00 | 0.00 | 79 | 1018.9 |
| 20260905121518 | 46 | 9 | 3.0 | 7.0 | 0.00 | 0.00 | 0.00 | 79 | 1018.8 |
| 20260905120518 | 46 | 4 | 3.0 | 6.0 | 0.00 | 0.00 | 0.00 | 79 | 1018.7 |
| 20260905115518 | 46 | 7 | 3.0 | 6.0 | 0.00 | 0.00 | 0.00 | 78 | 1018.8 |
| 20260905114519 | 46 | 7 | 3.0 | 5.0 | 0.00 | 0.00 | 0.00 | 78 | 1018.7 |
| 20260905113519 | 47 | 11 | 3.0 | 8.0 | 0.00 | 0.00 | 0.00 | 78 | 1018.6 |
| 20260905112520 | 47 | 22 | 3.0 | 6.0 | 0.00 | 0.00 | 0.00 | 77 | 1018.5 |
| 20260905111519 | 47 | 6 | 3.0 | 6.0 | 0.00 | 0.00 | 0.00 | 77 | 1018.4 |
| 20260905110519 | 47 | 13 | 2.0 | 5.0 | 0.00 | 0.00 | 0.00 | 77 | 1018.5 |
| 20260905105520 | 47 | 19 | 3.0 | 6.0 | 0.00 | 0.00 | 0.00 | 76 | 1018.5 |
| 20260905104520 | 48 | 10 | 3.0 | 6.0 | 0.00 | 0.00 | 0.00 | 76 | 1018.3 |
| 20260905103517 | 48 | 359 | 5.0 | 9.0 | 0.00 | 0.00 | 0.00 | 76 | 1018.4 |
| 20260905102517 | 48 | 17 | 3.0 | 7.0 | 0.00 | 0.00 | 0.00 | 75 | 1018.4 |
| 20260905101520 | 48 | 12 | 4.0 | 6.0 | 0.00 | 0.00 | 0.00 | 75 | 1018.4 |
| 20260905100522 | 48 | 1 | 3.0 | 6.0 | 0.00 | 0.00 | 0.00 | 75 | 1018.4 |
| 20260905095519 | 48 | 6 | 3.0 | 6.0 | 0.00 | 0.00 | 0.00 | 75 | 1018.4 |
| 20260905094520 | 49 | 7 | 4.0 | 8.0 | 0.00 | 0.00 | 0.00 | 75 | 1018.4 |
| 20260905093518 | 49 | 1 | 3.0 | 8.0 | 0.00 | 0.00 | 0.00 | 74 | 1018.4 |
| 20260905092518 | 49 | 20 | 5.0 | 9.0 | 0.00 | 0.00 | 0.00 | 74 | 1018.5 |
| 20260905091518 | 49 | 359 | 4.0 | 8.0 | 0.00 | 0.00 | 0.00 | 74 | 1018.4 |
| 20260905090519 | 49 | 350 | 2.0 | 7.0 | 0.00 | 0.00 | 0.00 | 74 | 1018.4 |
| 20260905085518 | 50 | 7 | 3.0 | 6.0 | 0.00 | 0.00 | 0.00 | 74 | 1018.4 |
| 20260905084520 | 50 | 13 | 3.0 | 6.0 | 0.00 | 0.00 | 0.00 | 74 | 1018.4 |
| 20260905083539 | 50 | 9 | 3.0 | 7.0 | 0.00 | 0.00 | 0.00 | 74 | 1018.2 |
| 20260905082559 | 50 | 19 | 3.0 | 7.0 | 0.00 | 0.00 | 0.00 | 74 | 1018.3 |
| 20260905081519 | 50 | 13 | 3.0 | 7.0 | 0.00 | 0.00 | 0.00 | 74 | 1018.3 |
| 20260905080520 | 50 | 12 | 3.0 | 6.0 | 0.00 | 0.00 | 0.00 | 74 | 1018.4 |
| 20260905075520 | 49 | 351 | 3.0 | 6.0 | 0.00 | 0.00 | 0.00 | 75 | 1018.4 |
| 20260905074520 | 50 | 347 | 1.0 | 4.0 | 0.00 | 0.00 | 0.00 | 75 | 1018.5 |
| 20260905073518 | 50 | 17 | 1.0 | 4.0 | 0.00 | 0.00 | 0.00 | 74 | 1018.5 |
| 20260905072537 | 50 | 1 | 1.0 | 3.0 | 0.00 | 0.00 | 0.00 | 73 | 1018.6 |
| 20260905071520 | 51 | 351 | 1.0 | 4.0 | 0.00 | 0.00 | 0.00 | 72 | 1018.6 |
| 20260905070519 | 51 | 3 | 1.0 | 4.0 | 0.00 | 0.00 | 0.00 | 72 | 1018.6 |
| 20260905065519 | 51 | 5 | 3.0 | 6.0 | 0.00 | 0.00 | 0.00 | 71 | 1018.6 |
| 20260905064518 | 52 | 12 | 3.0 | 5.0 | 0.00 | 0.00 | 0.00 | 71 | 1018.6 |
| 20260905063518 | 52 | 14 | 3.0 | 6.0 | 0.00 | 0.00 | 0.00 | 71 | 1018.5 |
| 20260905062519 | 52 | 358 | 3.0 | 6.0 | 0.00 | 0.00 | 0.00 | 71 | 1018.5 |
| 20260905061540 | 51 | 353 | 3.0 | 5.0 | 0.00 | 0.00 | 0.00 | 71 | 1018.4 |
| 20260905060540 | 51 | 2 | 4.0 | 8.0 | 0.00 | 0.00 | 0.00 | 71 | 1018.4 |
| 20260905055518 | 51 | 0 | 4.0 | 7.0 | 0.00 | 0.00 | 0.00 | 72 | 1018.5 |
| 20260905054517 | 52 | 341 | 3.0 | 6.0 | 0.00 | 0.00 | 0.00 | 72 | 1018.5 |
| 20260905053541 | 52 | 338 | 3.0 | 5.0 | 0.00 | 0.00 | 0.00 | 71 | 1018.5 |
| 20260905052521 | 52 | 340 | 2.0 | 5.0 | 0.00 | 0.00 | 0.00 | 71 | 1018.3 |
| 20260905051519 | 52 | 354 | 3.0 | 4.0 | 0.00 | 0.00 | 0.00 | 71 | 1018.4 |
| 20260905050520 | 52 | 323 | 1.0 | 3.0 | 0.00 | 0.00 | 0.00 | 71 | 1018.3 |
| 20260905045519 | 52 | 2 | 2.0 | 4.0 | 0.00 | 0.00 | 0.00 | 70 | 1018.2 |
| 20260905044538 | 53 | 326 | 1.0 | 3.0 | 0.00 | 0.00 | 0.00 | 69 | 1018.2 |
| 20260905043521 | 53 | 312 | 1.0 | 4.0 | 0.00 | 0.00 | 0.00 | 68 | 1018.2 |
| 20260905042520 | 54 | 313 | 1.0 | 3.0 | 0.00 | 0.00 | 0.00 | 67 | 1018.1 |
| 20260905041517 | 54 | 316 | 1.0 | 3.0 | 0.00 | 0.00 | 0.00 | 68 | 1018.1 |
| 20260905040518 | 54 | 346 | 1.0 | 3.0 | 0.00 | 0.00 | 0.00 | 67 | 1018.2 |
| 20260905035517 | 54 | 354 | 1.0 | 3.0 | 0.00 | 0.00 | 0.00 | 67 | 1018.2 |
| 20260905034518 | 54 | 268 | 1.0 | 2.0 | 0.00 | 0.00 | 0.00 | 68 | 1018.0 |
| 20260905033521 | 55 | 208 | 0.0 | 2.0 | 0.00 | 0.00 | 0.00 | 67 | 1017.9 |
| 20260905032540 | 55 | 229 | 1.0 | 3.0 | 0.00 | 0.00 | 0.00 | 66 | 1017.8 |
| 20260905031519 | 56 | 160 | 0.0 | 2.0 | 0.00 | 0.00 | 0.00 | 66 | 1017.6 |
| 20260905030518 | 56 | 213 | 0.0 | 2.0 | 0.00 | 0.00 | 0.00 | 66 | 1017.4 |
| 20260905025520 | 57 | 198 | 0.0 | 3.0 | 0.00 | 0.00 | 0.00 | 65 | 1017.3 |
| 20260905024518 | 58 | 350 | 0.0 | 2.0 | 0.00 | 0.00 | 0.00 | 64 | 1017.4 |
| 20260905023519 | 58 | 5 | 2.0 | 3.0 | 0.00 | 0.00 | 0.00 | 62 | 1017.3 |
| 20260905022541 | 59 | 1 | 1.0 | 3.0 | 0.00 | 0.00 | 0.00 | 62 | 1017.3 |
| 20260905021519 | 61 | 335 | 1.0 | 3.0 | 0.00 | 0.00 | 0.00 | 60 | 1017.1 |
| 20260905020601 | 62 | 346 | 0.0 | 3.0 | 0.00 | 0.00 | 0.00 | 57 | 1017.1 |
| 20260905015537 | 63 | 31 | 0.0 | 3.0 | 0.00 | 0.00 | 0.00 | 55 | 1016.8 |
| 20260905014517 | 64 | 213 | 1.0 | 3.0 | 0.00 | 0.00 | 0.00 | 54 | 1016.7 |
| 20260905013520 | 64 | 168 | 1.0 | 3.0 | 0.00 | 0.00 | 0.00 | 55 | 1016.6 |
| 20260905012520 | 65 | 79 | 1.0 | 4.0 | 0.00 | 0.00 | 0.00 | 55 | 1016.4 |
| 20260905011520 | 65 | 86 | 1.0 | 4.0 | 0.00 | 0.00 | 0.00 | 54 | 1016.4 |
| 20260905010517 | 65 | 29 | 1.0 | 3.0 | 0.00 | 0.00 | 0.00 | 54 | 1016.2 |
| 20260905005538 | 66 | 97 | 0.0 | 2.0 | 0.00 | 0.00 | 0.00 | 55 | 1016.1 |
| 20260905004518 | 66 | 37 | 1.0 | 5.0 | 0.00 | 0.00 | 0.00 | 53 | 1016.0 |
| 20260905003603 | 67 | 48 | 1.0 | 4.0 | 0.00 | 0.00 | 0.00 | 51 | 1016.0 |
| 20260905002520 | 68 | 140 | 0.0 | 2.0 | 0.00 | 0.00 | 0.00 | 51 | 1015.9 |
| 20260905001518 | 68 | 66 | 1.0 | 4.0 | 0.00 | 0.01 | 0.00 | 51 | 1015.8 |
| 20260905000518 | 68 | 238 | 1.0 | 3.0 | 0.00 | 0.01 | 0.00 | 50 | 1015.7 |
| 20260904235519 | 66 | 136 | 1.0 | 5.0 | 0.00 | 0.01 | 0.00 | 52 | 1015.7 |
| 20260904234520 | 66 | 19 | 1.0 | 4.0 | 0.00 | 0.01 | 0.00 | 56 | 1015.7 |
| 20260904233519 | 66 | 350 | 1.0 | 3.0 | 0.00 | 0.01 | 0.00 | 51 | 1015.6 |
| 20260904232519 | 67 | 124 | 1.0 | 5.0 | 0.00 | 0.01 | 0.00 | 51 | 1015.6 |
| 20260904231519 | 68 | 57 | 2.0 | 6.0 | 0.00 | 0.01 | 0.00 | 46 | 1015.6 |
| 20260904230542 | 68 | 23 | 2.0 | 5.0 | 0.00 | 0.01 | 0.00 | 45 | 1015.7 |
| 20260904225517 | 67 | 12 | 3.0 | 9.0 | 0.00 | 0.01 | 0.00 | 46 | 1015.6 |
| 20260904224518 | 66 | 34 | 3.0 | 7.0 | 0.00 | 0.01 | 0.00 | 46 | 1015.7 |
| 20260904223542 | 66 | 18 | 3.0 | 9.0 | 0.00 | 0.01 | 0.00 | 46 | 1015.6 |
| 20260904222520 | 66 | 24 | 3.0 | 8.0 | 0.00 | 0.01 | 0.00 | 46 | 1015.6 |
| 20260904221518 | 66 | 24 | 5.0 | 9.0 | 0.00 | 0.01 | 0.00 | 46 | 1015.7 |
| 20260904220518 | 66 | 29 | 4.0 | 9.0 | 0.00 | 0.01 | 0.00 | 46 | 1015.7 |
| 20260904215518 | 65 | 31 | 4.0 | 10.0 | 0.00 | 0.01 | 0.00 | 46 | 1015.8 |
| 20260904214540 | 65 | 14 | 5.0 | 10.0 | 0.00 | 0.01 | 0.00 | 46 | 1015.8 |